�������l�o���
Date,Time,MP-1(��Sv/h),MP-2(��Sv/h),MP-3(��Sv/h),MP-4(��Sv/h),MP-5(��Sv/h),MP-6(��Sv/h),MP-7(��Sv/h),MP-8(��Sv/h),����,����(m/s),���J
2020/02/20,00:00,0.685,0.985,0.649,1.215,0.862,0.396,0.692,0.659,���쐼,4.6,��
2020/02/20,00:10,0.686,0.985,0.649,1.212,0.864,0.397,0.693,0.661,��,4.4,��
2020/02/20,00:20,0.685,0.986,0.650,1.213,0.864,0.398,0.693,0.659,��,4.1,��
2020/02/20,00:30,0.686,0.984,0.650,1.212,0.863,0.396,0.694,0.659,���쐼,4.4,��
2020/02/20,00:40,0.687,0.987,0.647,1.212,0.865,0.397,0.694,0.660,���쐼,6.6,��
2020/02/20,00:50,0.686,0.987,0.649,1.213,0.863,0.398,0.694,0.659,���쐼,7.2,��
2020/02/20,01:00,0.686,0.987,0.649,1.213,0.863,0.397,0.693,0.660,���쐼,7.7,��
2020/02/20,01:10,0.686,0.987,0.650,1.213,0.865,0.397,0.693,0.658,���쐼,7.3,��
2020/02/20,01:20,0.686,0.986,0.650,1.212,0.864,0.397,0.693,0.659,���쐼,7.1,��
2020/02/20,01:30,0.688,0.985,0.651,1.213,0.864,0.396,0.694,0.660,���쐼,6.4,��
2020/02/20,01:40,0.688,0.986,0.650,1.213,0.864,0.397,0.693,0.661,���쐼,6.9,��
2020/02/20,01:50,0.689,0.986,0.649,1.216,0.863,0.397,0.694,0.659,���쐼,7.5,��
2020/02/20,02:00,0.688,0.987,0.648,1.214,0.863,0.397,0.695,0.661,���쐼,7.6,��
2020/02/20,02:10,0.689,0.986,0.650,1.214,0.864,0.396,0.694,0.660,���쐼,7.6,��
2020/02/20,02:20,0.689,0.986,0.650,1.213,0.865,0.397,0.693,0.661,���쐼,6.9,��
2020/02/20,02:30,0.688,0.984,0.648,1.213,0.864,0.399,0.694,0.661,���쐼,6.6,��
2020/02/20,02:40,0.690,0.985,0.649,1.214,0.864,0.399,0.695,0.660,���쐼,6.7,��
2020/02/20,02:50,0.688,0.985,0.650,1.216,0.862,0.399,0.693,0.661,���쐼,6.1,��
2020/02/20,03:00,0.689,0.984,0.650,1.214,0.863,0.398,0.695,0.661,���쐼,5.8,��
2020/02/20,03:10,0.688,0.987,0.649,1.216,0.864,0.399,0.692,0.659,���쐼,5.3,��
2020/02/20,03:20,0.687,0.986,0.650,1.214,0.863,0.398,0.695,0.660,���쐼,5.0,��
2020/02/20,03:30,0.688,0.988,0.650,1.213,0.863,0.399,0.694,0.659,�쐼,5.1,��
2020/02/20,03:40,0.688,0.985,0.650,1.213,0.864,0.397,0.695,0.662,�쐼,5.7,��
2020/02/20,03:50,0.688,0.985,0.649,1.215,0.864,0.398,0.695,0.659,�쐼,5.4,��
2020/02/20,04:00,0.689,0.987,0.649,1.215,0.864,0.398,0.694,0.660,�쐼,4.3,��
2020/02/20,04:10,0.689,0.986,0.650,1.214,0.864,0.398,0.694,0.660,��쐼,4.2,��
2020/02/20,04:20,0.687,0.986,0.649,1.215,0.865,0.398,0.693,0.659,��쐼,4.3,��
2020/02/20,04:30,0.688,0.985,0.649,1.216,0.864,0.397,0.696,0.660,��쐼,4.7,��
2020/02/20,04:40,0.688,0.987,0.649,1.213,0.865,0.398,0.694,0.658,��쐼,5.1,��
2020/02/20,04:50,0.686,0.985,0.650,1.213,0.863,0.400,0.694,0.661,�쐼,5.8,��
2020/02/20,05:00,0.689,0.988,0.649,1.214,0.862,0.398,0.694,0.660,�쐼,6.3,��
2020/02/20,05:10,0.688,0.987,0.648,1.214,0.863,0.399,0.695,0.660,��쐼,6.9,��
2020/02/20,05:20,0.687,0.986,0.647,1.216,0.863,0.398,0.694,0.660,��쐼,6.6,��
2020/02/20,05:30,0.688,0.987,0.649,1.217,0.865,0.399,0.694,0.661,�쐼,6.7,��
2020/02/20,05:40,0.687,0.985,0.651,1.214,0.866,0.397,0.694,0.659,�쐼,6.8,��
2020/02/20,05:50,0.687,0.989,0.650,1.214,0.866,0.398,0.695,0.659,�쐼,6.8,��
2020/02/20,06:00,0.687,0.987,0.649,1.215,0.862,0.398,0.694,0.661,�쐼,6.5,��
2020/02/20,06:10,0.688,0.987,0.649,1.214,0.863,0.397,0.694,0.660,�쐼,5.6,��
2020/02/20,06:20,0.689,0.985,0.649,1.214,0.863,0.398,0.694,0.661,���쐼,5.0,��
2020/02/20,06:30,0.687,0.986,0.649,1.216,0.864,0.399,0.694,0.660,���쐼,5.2,��
2020/02/20,06:40,0.687,0.986,0.647,1.215,0.865,0.398,0.694,0.662,���쐼,3.4,��
2020/02/20,06:50,0.687,0.986,0.647,1.216,0.865,0.399,0.695,0.660,�k��,0.8,��
2020/02/20,07:00,0.686,0.985,0.648,1.212,0.862,0.398,0.695,0.660,���k��,3.7,��
2020/02/20,07:10,0.686,0.987,0.649,1.214,0.863,0.397,0.695,0.662,��,4.0,��
2020/02/20,07:20,0.687,0.985,0.649,1.215,0.863,0.397,0.693,0.661,��,1.5,��
2020/02/20,07:30,0.690,0.986,0.651,1.215,0.863,0.397,0.695,0.660,�k��,3.3,��
2020/02/20,07:40,0.690,0.985,0.649,1.215,0.865,0.397,0.694,0.660,���k��,1.7,��
2020/02/20,07:50,0.690,0.987,0.649,1.215,0.866,0.397,0.694,0.660,���k��,1.2,��
2020/02/20,08:00,0.688,0.986,0.650,1.214,0.866,0.397,0.695,0.660,�k�k��,1.5,��
2020/02/20,08:10,0.687,0.989,0.649,1.214,0.865,0.398,0.695,0.660,�k�k��,2.2,��
2020/02/20,08:20,0.689,0.988,0.649,1.216,0.864,0.398,0.696,0.660,�k,3.9,��
2020/02/20,08:30,0.689,0.986,0.648,1.214,0.865,0.399,0.696,0.660,�k,4.7,��
2020/02/20,08:40,0.690,0.984,0.648,1.215,0.865,0.397,0.697,0.659,�k�k��,5.4,��
2020/02/20,08:50,0.691,0.983,0.647,1.213,0.865,0.398,0.697,0.662,�k�k��,6.1,��
2020/02/20,09:00,0.690,0.984,0.649,1.213,0.864,0.397,0.694,0.660,�k�k��,5.6,��
2020/02/20,09:10,0.690,0.984,0.649,1.213,0.865,0.400,0.696,0.660,�k�k��,4.5,��
2020/02/20,09:20,0.689,0.983,0.649,1.213,0.863,0.398,0.695,0.663,�k�k��,4.8,��
2020/02/20,09:30,0.690,0.981,0.652,1.216,0.865,0.399,0.694,0.660,�k�k��,5.1,��
2020/02/20,09:40,0.690,0.984,0.650,1.215,0.866,0.399,0.695,0.661,�k�k��,5.4,��
2020/02/20,09:50,0.691,0.984,0.649,1.215,0.866,0.398,0.694,0.659,�k,4.5,��
2020/02/20,10:00,0.692,0.980,0.648,1.215,0.868,0.398,0.696,0.661,�k,5.0,��
2020/02/20,10:10,0.690,0.979,0.649,1.216,0.868,0.398,0.693,0.660,�k,6.0,��
2020/02/20,10:20,0.690,0.977,0.649,1.215,0.867,0.398,0.694,0.661,�k�k��,4.8,��
2020/02/20,10:30,0.690,0.980,0.651,1.215,0.867,0.396,0.693,0.661,�k,5.7,��
2020/02/20,10:40,0.691,0.986,0.648,1.216,0.869,0.396,0.694,0.660,�k,7.3,��
2020/02/20,10:50,0.691,0.984,0.651,1.212,0.867,0.396,0.692,0.662,�k�k��,6.9,��
2020/02/20,11:00,0.691,0.983,0.651,1.215,0.868,0.396,0.693,0.661,�k�k��,7.8,��
2020/02/20,11:10,0.690,0.985,0.651,1.216,0.865,0.395,0.692,0.659,�k�k��,7.6,��
2020/02/20,11:20,0.691,0.985,0.649,1.219,0.868,0.396,0.694,0.661,�k�k��,7.1,��
2020/02/20,11:30,0.690,0.984,0.649,1.216,0.868,0.397,0.693,0.659,�k�k��,6.6,��
2020/02/20,11:40,0.691,0.982,0.649,1.214,0.867,0.396,0.694,0.660,�k�k��,5.8,��
2020/02/20,11:50,0.691,0.984,0.651,1.218,0.867,0.395,0.692,0.660,�k�k��,5.7,��
2020/02/20,12:00,0.690,0.988,0.650,1.218,0.867,0.396,0.693,0.661,�k�k��,6.6,��
2020/02/20,12:10,0.691,0.987,0.651,1.216,0.866,0.397,0.694,0.660,�k�k��,6.4,��
2020/02/20,12:20,0.690,0.984,0.650,1.217,0.865,0.397,0.693,0.660,�k�k��,6.6,��
2020/02/20,12:30,0.692,0.985,0.652,1.217,0.867,0.396,0.694,0.661,�k�k��,5.8,��
2020/02/20,12:40,0.692,0.983,0.650,1.215,0.865,0.398,0.694,0.660,�k�k��,5.2,��
2020/02/20,12:50,0.693,0.987,0.649,1.218,0.864,0.396,0.694,0.661,�k�k��,4.3,��
2020/02/20,13:00,0.691,0.985,0.652,1.219,0.866,0.398,0.692,0.661,�k�k��,3.7,��
2020/02/20,13:10,0.691,0.984,0.650,1.217,0.866,0.398,0.692,0.662,�k�k��,3.6,��
2020/02/20,13:20,0.691,0.986,0.653,1.219,0.866,0.397,0.694,0.662,�k�k��,3.4,��
2020/02/20,13:30,0.691,0.986,0.653,1.217,0.868,0.398,0.694,0.662,�k�k��,3.8,��
2020/02/20,13:40,0.691,0.982,0.649,1.217,0.867,0.397,0.695,0.661,�k�k��,3.8,��
2020/02/20,13:50,0.692,0.986,0.651,1.217,0.871,0.397,0.697,0.662,�k��,3.9,��
2020/02/20,14:00,0.691,0.982,0.653,1.217,0.868,0.397,0.694,0.661,�k��,4.6,��
2020/02/20,14:10,0.690,0.988,0.651,1.217,0.869,0.397,0.694,0.661,�k�k��,4.1,��
2020/02/20,14:20,0.693,0.989,0.651,1.217,0.871,0.397,0.693,0.660,�k��,3.3,��
2020/02/20,14:30,0.692,0.987,0.652,1.221,0.870,0.398,0.694,0.662,�k��,3.0,��
2020/02/20,14:40,0.689,0.991,0.650,1.219,0.870,0.398,0.694,0.662,�k�k��,3.0,��
2020/02/20,14:50,0.691,0.987,0.652,1.219,0.870,0.397,0.694,0.662,�k�k��,2.9,��
2020/02/20,15:00,0.691,0.988,0.651,1.220,0.868,0.397,0.694,0.661,�k�k��,2.6,��
2020/02/20,15:10,0.691,0.988,0.651,1.217,0.869,0.398,0.695,0.661,�k�k��,2.5,��
2020/02/20,15:20,0.692,0.991,0.651,1.220,0.870,0.398,0.695,0.661,�k��,2.3,��
2020/02/20,15:30,0.694,0.989,0.651,1.218,0.870,0.397,0.693,0.663,�k�k��,2.0,��
2020/02/20,15:40,0.691,0.991,0.652,1.218,0.869,0.396,0.695,0.662,�k��,2.3,��
2020/02/20,15:50,0.692,0.991,0.652,1.218,0.870,0.397,0.695,0.662,�k��,1.7,��
2020/02/20,16:00,0.691,0.993,0.650,1.219,0.871,0.398,0.694,0.661,�k�k��,2.0,��
2020/02/20,16:10,0.691,0.993,0.650,1.217,0.871,0.398,0.694,0.662,�k��,3.2,��
2020/02/20,16:20,0.692,0.994,0.652,1.219,0.868,0.397,0.695,0.663,�k�k��,2.6,��
2020/02/20,16:30,0.691,0.993,0.651,1.220,0.869,0.397,0.695,0.661,�k�k��,2.6,��
2020/02/20,16:40,0.692,0.994,0.650,1.221,0.870,0.398,0.695,0.661,�k�k��,3.0,��
2020/02/20,16:50,0.689,0.994,0.650,1.218,0.870,0.397,0.695,0.661,�k�k��,3.3,��
2020/02/20,17:00,0.690,0.994,0.653,1.218,0.870,0.398,0.694,0.662,�k,3.6,��
2020/02/20,17:10,0.691,0.994,0.651,1.219,0.868,0.398,0.695,0.662,�k,3.1,��
2020/02/20,17:20,0.692,0.994,0.653,1.218,0.870,0.398,0.695,0.661,�k,3.0,��
2020/02/20,17:30,0.692,0.993,0.651,1.220,0.872,0.396,0.696,0.663,�k�k��,3.2,��
2020/02/20,17:40,0.691,0.992,0.652,1.222,0.869,0.398,0.695,0.662,�k�k��,2.8,��
2020/02/20,17:50,0.690,0.991,0.652,1.218,0.869,0.397,0.697,0.661,�k�k��,2.6,��
2020/02/20,18:00,0.689,0.989,0.653,1.221,0.868,0.397,0.695,0.660,�k�k��,2.0,��
2020/02/20,18:10,0.690,0.993,0.654,1.218,0.864,0.397,0.695,0.662,�k��,2.3,��
2020/02/20,18:20,0.690,0.993,0.653,1.219,0.869,0.398,0.695,0.661,�k��,3.2,��
2020/02/20,18:30,0.691,0.994,0.652,1.219,0.868,0.397,0.695,0.660,�k��,3.4,��
2020/02/20,18:40,0.691,0.990,0.652,1.218,0.869,0.397,0.697,0.662,�k��,3.4,��
2020/02/20,18:50,0.691,0.994,0.654,1.217,0.869,0.397,0.696,0.661,�k��,3.6,��
2020/02/20,19:00,0.690,0.992,0.653,1.218,0.868,0.396,0.696,0.663,���k��,3.9,��
2020/02/20,19:10,0.691,0.994,0.652,1.220,0.868,0.397,0.697,0.661,�k��,4.4,��
2020/02/20,19:20,0.691,0.993,0.652,1.221,0.869,0.399,0.696,0.659,�k��,3.9,��
2020/02/20,19:30,0.693,0.990,0.651,1.220,0.868,0.397,0.694,0.661,�k��,4.2,��
2020/02/20,19:40,0.691,0.991,0.650,1.221,0.870,0.397,0.697,0.662,�k��,4.4,��
2020/02/20,19:50,0.690,0.988,0.652,1.217,0.869,0.397,0.695,0.661,�k��,5.0,��
2020/02/20,20:00,0.690,0.989,0.652,1.218,0.870,0.397,0.698,0.661,�k�k��,4.4,��
2020/02/20,20:10,0.689,0.988,0.650,1.218,0.867,0.397,0.695,0.659,�k�k��,4.8,��
2020/02/20,20:20,0.688,0.989,0.651,1.219,0.870,0.397,0.694,0.660,�k�k��,4.6,��
2020/02/20,20:30,0.689,0.986,0.651,1.219,0.870,0.398,0.695,0.660,�k�k��,4.6,��
2020/02/20,20:40,0.690,0.989,0.651,1.220,0.869,0.398,0.694,0.662,�k�k��,4.9,��
2020/02/20,20:50,0.689,0.988,0.652,1.218,0.869,0.397,0.696,0.661,�k�k��,4.7,��
2020/02/20,21:00,0.691,0.988,0.653,1.220,0.868,0.397,0.694,0.660,�k�k��,4.2,��
2020/02/20,21:10,0.687,0.989,0.652,1.217,0.871,0.398,0.695,0.660,�k�k��,4.2,��
2020/02/20,21:20,0.690,0.987,0.653,1.219,0.870,0.397,0.695,0.661,�k�k��,4.0,��
2020/02/20,21:30,0.690,0.986,0.651,1.218,0.869,0.397,0.695,0.660,�k�k��,3.3,��
2020/02/20,21:40,0.688,0.992,0.651,1.219,0.868,0.396,0.696,0.660,�k��,3.2,��
2020/02/20,21:50,0.691,0.988,0.652,1.219,0.868,0.397,0.696,0.660,�k��,3.6,��
2020/02/20,22:00,0.689,0.987,0.654,1.219,0.869,0.398,0.695,0.662,���k��,3.3,��
2020/02/20,22:10,0.690,0.986,0.653,1.216,0.869,0.397,0.694,0.662,�k��,3.1,��
2020/02/20,22:20,0.690,0.989,0.651,1.218,0.869,0.398,0.696,0.660,���k��,3.5,��
2020/02/20,22:30,0.691,0.989,0.651,1.218,0.868,0.396,0.694,0.663,�k��,4.7,��
2020/02/20,22:40,0.690,0.989,0.649,1.220,0.868,0.398,0.696,0.660,�k��,4.4,��
2020/02/20,22:50,0.689,0.989,0.650,1.218,0.868,0.396,0.696,0.661,�k��,4.9,��
2020/02/20,23:00,0.690,0.990,0.652,1.218,0.871,0.398,0.697,0.661,�k��,4.4,��
2020/02/20,23:10,0.688,0.987,0.651,1.220,0.869,0.396,0.695,0.662,�k��,5.0,��
2020/02/20,23:20,0.689,0.991,0.651,1.216,0.866,0.398,0.695,0.661,�k��,4.4,��
2020/02/20,23:30,0.688,0.990,0.651,1.219,0.867,0.396,0.695,0.661,�k��,3.8,��
2020/02/20,23:40,0.687,0.989,0.652,1.221,0.867,0.397,0.694,0.661,�k��,4.1,��
2020/02/20,23:50,0.688,0.991,0.649,1.218,0.867,0.397,0.693,0.660,�k��,5.5,��
